Location: Newark
(46.7114°N, 6.1944°E)
Time: 03:44:30
(UTC+00:00)

Envisat - Visible Passes

Search period start: 20 November 2019 00:00
Search period end: 30 November 2019 00:00
Orbit: 764 x 766 km, 98.1° (Epoch: 19 November)

Date Brightness Start Highest point End Pass type
(mag) Time Alt. Az. Time Alt. Az. Time Alt. Az.
20 Nov 5.8 05:24:48 10° NE 05:28:34 21° E 05:32:20 10° SE visible
20 Nov 3.5 16:41:49 10° SE 16:46:26 36° ENE 16:51:03 10° N visible
20 Nov 4.7 18:20:57 10° SSW 18:25:28 32° W 18:30:02 10° NNW visible
21 Nov 3.3 17:43:29 10° S 17:48:32 68° WSW 17:53:37 10° NNW visible
22 Nov 4.9 05:49:40 10° NNE 05:54:18 34° E 05:58:53 10° SSE visible
22 Nov 3.0 17:06:48 10° SSE 17:11:47 59° ENE 17:16:48 10° N visible
22 Nov 5.6 18:47:35 10° SW 18:51:13 19° W 18:54:52 10° NW visible
23 Nov 6.0 05:13:58 10° NE 05:17:10 17° E 05:20:22 10° SE visible
23 Nov 3.8 16:30:53 10° SE 16:35:14 30° ENE 16:39:37 10° N visible
23 Nov 4.3 18:09:22 10° SSW 18:14:07 40° W 18:18:55 10° NNW visible
24 Nov 3.8 06:14:54 10° NNE 06:19:56 57° E 06:24:55 10° S visible
24 Nov 3.0 17:32:09 10° SSE 17:37:14 84° WSW 17:42:22 10° NNW visible
24 Nov 6.2 19:15:33 10° WSW 19:17:03 11° W 19:18:34 10° WNW visible
25 Nov 5.3 05:38:36 10° NE 05:42:57 28° E 05:47:15 10° SSE visible
25 Nov 3.2 16:55:42 10° SE 17:00:33 48° ENE 17:05:26 10° N visible
25 Nov 5.2 18:35:45 10° SW 18:39:49 24° W 18:43:55 10° NW visible
26 Nov 6.1 05:03:22 10° ENE 05:05:45 13° E 05:08:08 10° ESE visible
26 Nov 4.0 16:20:01 10° ESE 16:24:04 25° ENE 16:28:07 10° N visible
26 Nov 3.9 17:57:53 10° S 18:02:48 50° W 18:07:45 10° NNW visible
27 Nov 4.3 06:03:42 10° NNE 06:08:36 46° E 06:13:28 10° S visible
27 Nov 2.9 17:20:54 10° SSE 17:25:58 80° ENE 17:31:05 10° NNW visible
27 Nov 5.9 19:02:56 10° WSW 19:05:37 14° W 19:08:19 10° NW visible
28 Nov 5.6 05:27:36 10° NE 05:31:34 22° E 05:35:30 10° SE visible
28 Nov 3.4 16:44:40 10° SE 16:49:21 39° ENE 16:54:03 10° N visible
28 Nov 4.9 18:24:01 10° SSW 18:28:27 30° W 18:32:54 10° NNW visible
29 Nov 6.5 04:53:39 10° ENE 04:54:18 10° E 04:54:57 10° E visible
29 Nov 3.5 17:46:28 10° S 17:51:29 62° WSW 17:56:32 10° NNW visible
